Location: Corcelles
(46.1547°N, 4.7234°E)
Time: 10:58:18
(UTC+00:00)

IRS-1C - Pass Details

Date: 14 July 2020
Orbit: 815 x 817 km, 98.8° (Epoch: 05 August)

Event Time Altitude Azimuth Distance (km) Brightness Sun altitude
Rises 02:51:29 0° 10° (N) 3,355 8.4 -10.4°
Reaches altitude 10° 02:53:52 10° 7° (N) 2,418 7.4 -10.1°
Maximum altitude 02:59:05 56° 290° (WNW) 968 4.4 -9.5°
Enters shadow 03:04:12 10° 214° (SSW) 2,377 5.9 -8.9°
